Regional Weather Roundup
Issued by NWS Bismarck, ND

Home | Current Version | Previous Version | Text Only | Print | Product List | Glossary On
Versions: 1 2 3 4 5 6 7 8 9 10 11 12 13 14 15 16 17 18 19 20 21 22 23 24 25 26 27 28 29 30 31 32 33 34 35 36 37 38 39 40 41 42 43 44 45 46 47 48 49 50
000
ASUS43 KBIS 171959
RWRBIS

NWR BROADCAST TEXT
NATIONAL WEATHER SERVICE BISMARCK ND
200 PM CST WED DEC 17 2014

NOTE: "FAIR" INDICATES FEW OR NO CLOUDS BELOW 12,000 FEET WITH NO
SIGNIFICANT WEATHER AND/OR OBSTRUCTIONS TO VISIBILITY.


CITY           SKY/WX    TMP DP  RH WIND       PRES   REMARKS
WILLISTON      CLOUDY    20  13  74 S14       30.11F WCI   7
MINOT          MOSUNNY   17  10  74 SE10      30.20F WCI   5
MINOT AFB      NOT AVBL
BISMARCK       MOSUNNY   19  10  68 SE10      30.22F WCI   7
DICKINSON      LGT SNOW  18  13  80 SE14      30.06F WCI   4
GARRISON         N/A     16  11  80 SE12      30.17F WCI   3
HETTINGER ARPT CLOUDY    16  13  88 SE13      30.07F WCI   2
JAMESTOWN      SUNNY     17  10  74 CALM      30.26F
CARRINGTON     FAIR      16  14  93 MISG      30.27F
CROSBY         CLOUDY    18  14  86 S12       30.13S WCI   5
$$

CITY           SKY/WX    TMP DP  RH WIND       PRES   REMARKS
GRAND FORKS    MOSUNNY   17  10  74 CALM      30.35F
GRAND FORKS AF NOT AVBL
DEVILS LAKE    SUNNY     14   1  57 S3        30.26F
FARGO          SUNNY     19  11  70 N6        30.33F WCI  11
GWINNER        CLEAR     21  14  73 MISG      30.31F
$$

CITY           SKY/WX    TMP DP  RH WIND       PRES   REMARKS
ABERDEEN       SUNNY     19  11  70 E6        30.28F WCI  11
MOBRIDGE       MOSUNNY   20  11  68 S13       30.17F WCI   7
BUFFALO          N/A     19  16  88 SE12      29.95F WCI   7
RAPID CITY     CLOUDY    23  20  88 E6        29.98F WCI  16
GLASGOW        CLOUDY    22  16  78 E14       30.00F WCI   9
SIDNEY         CLOUDY    19  16  86 SE12      30.10F WCI   7
WOLF POINT     CLOUDY    22  16  78 SE7       30.07F WCI  13
GLENDIVE       CLOUDY    21  18  86 SE10      30.04F WCI  10
MILES CITY     CLOUDY    24  20  84 SE8       29.98F WCI  15
BAKER          CLOUDY    19  18  95 SE15      30.02F WCI   5
$$

CITY           SKY/WX    TMP DP  RH WIND       PRES   REMARKS
BILLINGS       CLOUDY    31  24  75 SW15      29.92F
GREAT FALLS    CLOUDY    35  30  82 S10       29.85F
$$




USA.gov is the U.S. government's official web portal to all federal, state and local government web resources and services.